| time (UTC) | temp F | wind direction | speed MPH | gust MPH | rain 1hr in | rain 24hr in | rain mn in | humidity % | barometer mb |
| 20260504173005 | 75 | 282 | 3.0 | 9.0 | 0.00 | 0.00 | 0.00 | 34 | 1012.4 |
| 20260504172004 | 74 | 292 | 4.0 | 8.0 | 0.00 | 0.00 | 0.00 | 34 | 1012.5 |
| 20260504171504 | 75 | 355 | 3.0 | 9.0 | 0.00 | 0.00 | 0.00 | 34 | 1012.6 |
| 20260504170504 | 74 | 215 | 3.0 | 8.0 | 0.00 | 0.00 | 0.00 | 38 | 1012.7 |
| 20260504140505 | 66 | 181 | 2.0 | 5.0 | 0.00 | 0.00 | 0.00 | 55 | 1014.1 |
| 20260504130504 | 63 | 148 | 2.0 | 5.0 | 0.00 | 0.00 | 0.00 | 60 | 1014.9 |
| 20260504110505 | 53 | 136 | 1.0 | 3.0 | 0.00 | 0.00 | 0.00 | 79 | 1015.6 |
| 20260504081004 | 52 | 174 | 2.0 | 3.0 | 0.00 | 0.00 | 0.00 | 77 | 1015.9 |
| 20260504080504 | 52 | 172 | 2.0 | 5.0 | 0.00 | 0.00 | 0.00 | 77 | 1015.8 |
| 20260504050505 | 50 | 175 | 2.0 | 3.0 | 0.00 | 0.00 | 0.00 | 62 | 1015.8 |
| 20260504045004 | 49 | 147 | 1.0 | 3.0 | 0.00 | 0.00 | 0.00 | 64 | 1015.7 |
| 20260504044504 | 49 | 109 | 1.0 | 2.0 | 0.00 | 0.00 | 0.00 | 64 | 1015.7 |
| 20260504044005 | 49 | 109 | 1.0 | 2.0 | 0.00 | 0.00 | 0.00 | 64 | 1015.7 |
| 20260504043004 | 48 | 144 | 0.0 | 2.0 | 0.00 | 0.00 | 0.00 | 65 | 1015.7 |
| 20260504042504 | 48 | 132 | 0.0 | 2.0 | 0.00 | 0.00 | 0.00 | 66 | 1015.6 |
| 20260504042004 | 48 | 138 | 0.0 | 2.0 | 0.00 | 0.00 | 0.00 | 66 | 1015.6 |
| 20260504041504 | 48 | 138 | 0.0 | 2.0 | 0.00 | 0.00 | 0.00 | 66 | 1015.5 |
| 20260504041005 | 48 | 138 | 0.0 | 2.0 | 0.00 | 0.00 | 0.00 | 66 | 1015.5 |
| 20260504040004 | 47 | 138 | 0.0 | 2.0 | 0.00 | 0.00 | 0.00 | 68 | 1015.3 |
| 20260504035505 | 47 | 151 | 0.0 | 1.0 | 0.00 | 0.00 | 0.00 | 68 | 1015.3 |
| 20260504035005 | 47 | 155 | 0.0 | 1.0 | 0.00 | 0.00 | 0.00 | 67 | 1015.3 |
| 20260504034504 | 47 | 155 | 1.0 | 2.0 | 0.00 | 0.00 | 0.00 | 68 | 1015.2 |
| 20260504033004 | 47 | 194 | 0.0 | 1.0 | 0.00 | 0.00 | 0.00 | 68 | 1015.1 |
| 20260504032505 | 47 | 194 | 0.0 | 1.0 | 0.00 | 0.00 | 0.00 | 68 | 1015.2 |
| 20260504031004 | 47 | 275 | 0.0 | 1.0 | 0.00 | 0.00 | 0.00 | 67 | 1015.1 |
| 20260504030005 | 47 | 275 | 0.0 | 1.0 | 0.00 | 0.00 | 0.00 | 67 | 1015.1 |
| 20260504025505 | 48 | 275 | 0.0 | 1.0 | 0.00 | 0.00 | 0.00 | 66 | 1015.1 |
| 20260504025005 | 48 | 275 | 0.0 | 1.0 | 0.00 | 0.00 | 0.00 | 67 | 1015.1 |
| 20260504024504 | 47 | 275 | 0.0 | 2.0 | 0.00 | 0.00 | 0.00 | 67 | 1015.1 |
| 20260504024004 | 48 | 275 | 0.0 | 1.0 | 0.00 | 0.00 | 0.00 | 67 | 1015.1 |
| 20260504023504 | 47 | 275 | 1.0 | 2.0 | 0.00 | 0.00 | 0.00 | 68 | 1015.1 |
| 20260504020504 | 47 | 275 | 0.0 | 0.0 | 0.00 | 0.00 | 0.00 | 68 | 1015.1 |
| 20260504020005 | 47 | 275 | 0.0 | 0.0 | 0.00 | 0.00 | 0.00 | 68 | 1014.9 |
| 20260504015505 | 47 | 275 | 0.0 | 0.0 | 0.00 | 0.00 | 0.00 | 70 | 1014.9 |
| 20260504015005 | 47 | 275 | 0.0 | 0.0 | 0.00 | 0.00 | 0.00 | 67 | 1014.9 |
| 20260504014504 | 47 | 275 | 0.0 | 0.0 | 0.00 | 0.00 | 0.00 | 67 | 1014.9 |
| 20260504005504 | 50 | 275 | 0.0 | 1.0 | 0.00 | 0.00 | 0.00 | 62 | 1014.5 |
| 20260504001504 | 54 | 275 | 0.0 | 1.0 | 0.00 | 0.00 | 0.00 | 50 | 1013.9 |
| 20260503234504 | 57 | 275 | 1.0 | 2.0 | 0.00 | 0.00 | 0.00 | 42 | 1013.7 |
| 20260503233504 | 58 | 275 | 1.0 | 3.0 | 0.00 | 0.00 | 0.00 | 40 | 1013.7 |
| 20260503233005 | 58 | 286 | 2.0 | 3.0 | 0.00 | 0.00 | 0.00 | 40 | 1013.7 |
| 20260503232004 | 58 | 298 | 2.0 | 3.0 | 0.00 | 0.00 | 0.00 | 40 | 1013.7 |
| 20260503230505 | 59 | 248 | 2.0 | 3.0 | 0.00 | 0.00 | 0.00 | 39 | 1013.6 |
| 20260503230005 | 59 | 253 | 1.0 | 6.0 | 0.00 | 0.00 | 0.00 | 39 | 1013.5 |
| 20260503225004 | 60 | 303 | 2.0 | 8.0 | 0.00 | 0.00 | 0.00 | 37 | 1013.5 |
| 20260503224005 | 60 | 357 | 3.0 | 8.0 | 0.00 | 0.00 | 0.00 | 37 | 1013.4 |
| 20260503223504 | 60 | 297 | 3.0 | 12.0 | 0.00 | 0.00 | 0.00 | 37 | 1013.4 |
| 20260503223004 | 60 | 300 | 4.0 | 7.0 | 0.00 | 0.00 | 0.00 | 37 | 1013.4 |
| 20260503222504 | 60 | 296 | 6.0 | 12.0 | 0.00 | 0.00 | 0.00 | 36 | 1013.4 |
| 20260503222004 | 60 | 274 | 5.0 | 8.0 | 0.00 | 0.00 | 0.00 | 36 | 1013.4 |
| 20260503221504 | 60 | 325 | 3.0 | 12.0 | 0.00 | 0.00 | 0.00 | 37 | 1013.4 |
| 20260503220504 | 61 | 270 | 5.0 | 8.0 | 0.00 | 0.00 | 0.00 | 36 | 1013.4 |
| 20260503220004 | 61 | 293 | 3.0 | 9.0 | 0.00 | 0.00 | 0.00 | 37 | 1013.4 |
| 20260503214504 | 61 | 332 | 4.0 | 14.0 | 0.00 | 0.00 | 0.00 | 37 | 1013.4 |
| 20260503213505 | 61 | 321 | 6.0 | 14.0 | 0.00 | 0.00 | 0.00 | 35 | 1013.3 |
| 20260503210505 | 61 | 302 | 5.0 | 13.0 | 0.00 | 0.00 | 0.00 | 35 | 1013.2 |
| 20260503210005 | 61 | 289 | 6.0 | 12.0 | 0.00 | 0.00 | 0.00 | 36 | 1013.1 |
| 20260503205504 | 61 | 306 | 4.0 | 9.0 | 0.00 | 0.00 | 0.00 | 36 | 1013.1 |
| 20260503204505 | 61 | 302 | 6.0 | 12.0 | 0.00 | 0.00 | 0.00 | 36 | 1013.2 |
| 20260503203505 | 61 | 256 | 5.0 | 13.0 | 0.00 | 0.00 | 0.00 | 34 | 1013.1 |
| 20260503203004 | 62 | 287 | 5.0 | 12.0 | 0.00 | 0.00 | 0.00 | 35 | 1013.2 |
| 20260503202504 | 61 | 358 | 3.0 | 8.0 | 0.00 | 0.00 | 0.00 | 36 | 1013.2 |
| 20260503201005 | 61 | 269 | 6.0 | 13.0 | 0.00 | 0.00 | 0.00 | 35 | 1013.5 |
| 20260503200505 | 61 | 230 | 3.0 | 13.0 | 0.00 | 0.00 | 0.00 | 40 | 1013.4 |
| 20260503200005 | 61 | 282 | 5.0 | 12.0 | 0.00 | 0.00 | 0.00 | 36 | 1013.4 |
| 20260503195504 | 61 | 4 | 4.0 | 12.0 | 0.00 | 0.00 | 0.00 | 37 | 1013.4 |
| 20260503195005 | 61 | 337 | 4.0 | 12.0 | 0.00 | 0.00 | 0.00 | 40 | 1013.4 |
| 20260503194004 | 61 | 333 | 3.0 | 7.0 | 0.00 | 0.00 | 0.00 | 37 | 1013.3 |
| 20260503193504 | 61 | 339 | 5.0 | 12.0 | 0.00 | 0.00 | 0.00 | 37 | 1013.5 |
| 20260503191504 | 61 | 289 | 6.0 | 17.0 | 0.00 | 0.00 | 0.00 | 37 | 1013.5 |
| 20260503191005 | 60 | 277 | 6.0 | 13.0 | 0.00 | 0.00 | 0.00 | 38 | 1013.4 |
| 20260503190004 | 60 | 324 | 6.0 | 10.0 | 0.00 | 0.00 | 0.00 | 37 | 1013.7 |
| 20260503185504 | 61 | 316 | 5.0 | 13.0 | 0.00 | 0.00 | 0.00 | 36 | 1013.6 |
| 20260503185005 | 60 | 241 | 5.0 | 13.0 | 0.00 | 0.00 | 0.00 | 38 | 1013.5 |
| 20260503183504 | 60 | 287 | 3.0 | 10.0 | 0.00 | 0.00 | 0.00 | 40 | 1013.8 |
| 20260503183005 | 60 | 276 | 4.0 | 8.0 | 0.00 | 0.00 | 0.00 | 38 | 1013.9 |
| 20260503182505 | 59 | 307 | 5.0 | 12.0 | 0.00 | 0.00 | 0.00 | 38 | 1014.0 |
| 20260503182005 | 60 | 339 | 5.0 | 13.0 | 0.00 | 0.00 | 0.00 | 39 | 1013.8 |
| 20260503181005 | 60 | 318 | 3.0 | 10.0 | 0.00 | 0.00 | 0.00 | 41 | 1014.0 |
| 20260503180504 | 59 | 324 | 6.0 | 12.0 | 0.00 | 0.00 | 0.00 | 40 | 1014.0 |
| 20260503180004 | 59 | 351 | 6.0 | 10.0 | 0.00 | 0.00 | 0.00 | 41 | 1013.9 |
| 20260503175504 | 59 | 287 | 6.0 | 12.0 | 0.00 | 0.00 | 0.00 | 40 | 1013.9 |
| 20260503175004 | 60 | 294 | 3.0 | 8.0 | 0.00 | 0.00 | 0.00 | 44 | 1014.0 |
| 20260503174504 | 59 | 323 | 5.0 | 10.0 | 0.00 | 0.00 | 0.00 | 43 | 1014.0 |